This demonstration page uses our WeatherBlox Daily Observations layout. Learn more.

Left ArrowRight Arrow

Hourly Observations for February 8, 2018

Temp ( °F °C ) Dew Point ( °F °C ) Humidity (%) Winds ( mph kmh ) Pressure ( in mb ) Visibility ( mi km ) Precip ( " mm )
12:54 am 00:54 Clear 16 -8.9 10 -12.2 77 77 SSW 3 6 30.41 1030 10 16 0.00 0.00
1:54 am 01:54 Cloudy 18 -7.8 11 -11.7 74 74 SSW 3 6 30.39 1029 10 16 0.00 0.00
2:54 am 02:54 Mostly Cloudy 18 -7.8 11 -11.7 74 74 SSW 3 6 30.39 1029 10 16 0.00 0.00
3:54 am 03:54 Cloudy 19 -7.2 13 -10.6 77 77 Calm 30.37 1028 10 16 0.00 0.00
4:54 am 04:54 Cloudy 21 -6.1 14 -10 74 74 Calm 30.37 1028 10 16 0.00 0.00
5:54 am 05:54 Cloudy 22 -5.6 16 -8.9 78 78 W 5 7 30.37 1028 10 16 0.00 0.00
6:54 am 06:54 Cloudy 23 -5 17 -8.3 78 78 Calm 30.37 1029 10 16 0.00 0.00
7:54 am 07:54 Cloudy 23 -5 18 -7.8 81 81 Calm 30.38 1029 9 14 0.00 0.00
8:54 am 08:54 Cloudy 23 -5 16 -8.9 74 74 NNE 12 19 30.36 1028 10 16 0.00 0.00
9:54 am 09:54 Mostly Sunny 24 -4.4 15 -9.4 68 68 ENE 9 15 30.36 1028 10 16 0.00 0.00
10:54 am 10:54 Sunny 24 -4.4 15 -9.4 68 68 NNE 13 20 30.37 1028 9 14 0.00 0.00
11:54 am 11:54 Sunny 25 -3.9 16 -8.9 69 69 NE 9 15 30.35 1028 9 14 0.00 0.00
12:54 pm 12:54 Sunny 26 -3.3 17 -8.3 69 69 ENE 8 13 30.30 1026 8 13 0.00 0.00
1:54 pm 13:54 Sunny 28 -2.2 18 -7.8 66 66 NE 9 15 30.25 1024 7 11 0.00 0.00
2:54 pm 14:54 Sunny 28 -2.2 19 -7.2 69 69 E 10 17 30.22 1023 7 11 0.00 0.00
3:54 pm 15:54 Hazy 28 -2.2 19 -7.2 69 69 E 8 13 30.21 1023 6 10 0.00 0.00
4:54 pm 16:54 Hazy 27 -2.8 19 -7.2 72 72 ENE 9 15 30.17 1022 6 10 0.00 0.00
5:54 pm 17:54 Hazy 26 -3.3 19 -7.2 75 75 E 10 17 30.16 1021 6 10 0.00 0.00
6:54 pm 18:54 Hazy 24 -4.4 18 -7.8 77 77 NE 7 11 30.15 1021 6 10 0.00 0.00
7:54 pm 19:54 Hazy 23 -5 18 -7.8 81 81 NE 6 9 30.13 1020 6 10 0.00 0.00
8:54 pm 20:54 Hazy 23 -5 18 -7.8 81 81 NNE 8 13 30.12 1020 6 10 0.00 0.00
9:54 pm 21:54 Clear with Mist and Fog 23 -5 19 -7.2 85 85 NNE 13 20 30.12 1020 5 8 0.00 0.00
10:54 pm 22:54 Clear with Mist and Fog 23 -5 19 -7.2 85 85 NNE 10 17 30.11 1020 6 10 0.00 0.00
11:54 pm 23:54 Mostly Clear with Mist and Fog 22 -5.6 18 -7.8 85 85 NNE 15 24 30.13 1020 5 8 0.00 0.00

Powered by AerisWeather